Weather History for Covington, KY

Change the Weather History Date:

Friday, March 14, 2014

  Actual Average Record
Temperature  
Mean Temperature 48 °F 43 °F  
Max Temperature 63 °F 52 °F 80 °F (1990)
Min Temperature 33 °F 33 °F 11 °F (1993)
Degree Days  
Heating Degree Days 17 22  
Month to date heating degree days 382 343  
Since 1 July heating degree days 4626 4170  
Cooling Degree Days 0 0  
Month to date cooling degree days 0 0  
Year to date cooling degree days 0 0  
Moisture  
Dew Point 26 °F    
Average Humidity 42    
Maximum Humidity 56    
Minimum Humidity 27    
Precipitation  
Precipitation T in 0.12 in 2.35 in (1922)
Month to date precipitation 0.94 1.60  
Year to date precipitation 6.48 7.41  
Snow  
Snow 0.00 in 0.10 in 4.20 in (1999)
Month to date snowfall 2.5 1.7  
Since 1 July snowfall 46.1 20.3  
Snow Depth 0.00 in    
Sea Level Pressure  
Sea Level Pressure 29.94 in    
Wind  
Wind Speed 16 mph (SSW)    
Max Wind Speed 32 mph    
Max Gust Speed 49 mph    
Visibility 10 miles    
Events      
T = Trace of Precipitation, MM = Missing Value Source: NWS Daily Summary

Daily Weather History Graph

Daily Weather History Graph

Search for Another Location

Airport:

Trip Planner

Search our weather history database for the weather conditions in past years. The results will help you decide how hot, cold, wet, or windy it might be!

Date:

Astronomy

Mar. 14, 2014 Rise Set
Actual Time 7:51 AM EDT 7:44 PM EDT
Civil Twilight 7:24 AM EDT 8:11 PM EDT
Nautical Twilight 6:54 AM EDT 8:42 PM EDT
Astronomical Twilight 6:22 AM EDT 9:13 PM EDT
Moon 6:06 PM EDT (3/14) 6:30 AM EDT (3/14)
Length of Visible Light 12h 46m
Length of Day
11h 53m
Waxing Gibbous, 96% of the Moon is Illuminated
Mar 14
Waxing Gibbous
Mar 16
Full
Mar 23
Last Quarter
Mar 30
New
Apr 7
First Quarter

Hourly Weather History & Observations

Time (EDT) Temp. Windchill Dew Point Humidity Pressure Visibility Wind Dir Wind Speed Gust Speed Precip Events Conditions
12:52 AM 34.0 °F 26.6 °F 17.1 °F 50% 30.10 in 10.0 mi South 9.2 mph - N/A   Clear
1:52 AM 34.0 °F 27.2 °F 18.0 °F 52% 30.08 in 10.0 mi SSW 8.1 mph - N/A   Clear
2:52 AM 34.0 °F 26.0 °F 18.0 °F 52% 30.07 in 10.0 mi SSW 10.4 mph - N/A   Clear
3:52 AM 35.1 °F 27.9 °F 18.0 °F 50% 30.05 in 10.0 mi SSW 9.2 mph - N/A   Clear
4:52 AM 35.1 °F 27.4 °F 18.0 °F 50% 30.03 in 10.0 mi SSW 10.4 mph - N/A   Clear
5:52 AM 36.0 °F 28.0 °F 19.0 °F 50% 30.01 in 10.0 mi SSW 11.5 mph - N/A   Partly Cloudy
6:52 AM 36.0 °F 29.0 °F 21.0 °F 55% 30.01 in 10.0 mi SSW 9.2 mph - N/A   Partly Cloudy
7:52 AM 37.0 °F 29.8 °F 21.9 °F 54% 30.01 in 10.0 mi SSW 10.4 mph - N/A   Partly Cloudy
8:52 AM 39.9 °F 32.1 °F 24.1 °F 53% 30.01 in 10.0 mi SSW 13.8 mph 20.7 mph N/A   Partly Cloudy
9:52 AM 46.0 °F 40.6 °F 27.0 °F 47% 30.01 in 10.0 mi SSW 11.5 mph 25.3 mph N/A   Scattered Clouds
10:52 AM 50.0 °F - 28.0 °F 43% 29.99 in 10.0 mi SW 18.4 mph 29.9 mph N/A   Mostly Cloudy
11:52 AM 55.0 °F - 30.0 °F 38% 29.96 in 10.0 mi SSW 23.0 mph 32.2 mph N/A   Mostly Cloudy
12:52 PM 57.9 °F - 30.9 °F 36% 29.92 in 10.0 mi SSW 19.6 mph 36.8 mph N/A   Mostly Cloudy
1:52 PM 60.1 °F - 30.0 °F 32% 29.88 in 10.0 mi SW 21.9 mph 35.7 mph N/A   Overcast
2:52 PM 63.0 °F - 28.9 °F 28% 29.84 in 10.0 mi SSW 28.8 mph 40.3 mph N/A   Mostly Cloudy
3:52 PM 62.1 °F - 28.9 °F 29% 29.82 in 10.0 mi SSW 23.0 mph 38.0 mph N/A   Mostly Cloudy
4:52 PM 61.0 °F - 27.0 °F 27% 29.81 in 10.0 mi SW 25.3 mph 40.3 mph N/A   Overcast
5:52 PM 61.0 °F - 28.0 °F 29% 29.80 in 10.0 mi SW 28.8 mph 40.3 mph N/A   Overcast
6:52 PM 60.1 °F - 28.9 °F 31% 29.80 in 10.0 mi SSW 16.1 mph 27.6 mph N/A   Mostly Cloudy
7:52 PM 59.0 °F - 28.9 °F 32% 29.82 in 10.0 mi SW 19.6 mph 29.9 mph N/A   Overcast
8:52 PM 57.0 °F - 30.9 °F 37% 29.83 in 10.0 mi SW 13.8 mph 21.9 mph N/A   Scattered Clouds
9:52 PM 57.0 °F - 32.0 °F 39% 29.84 in 10.0 mi SW 12.7 mph 20.7 mph N/A   Overcast
10:52 PM 55.9 °F - 35.1 °F 45% 29.85 in 10.0 mi SW 12.7 mph 24.2 mph N/A   Partly Cloudy
11:52 PM 55.0 °F - 36.0 °F 49% 29.87 in 10.0 mi SW 15.0 mph 27.6 mph N/A   Overcast